Flag for Germany Weather past 2 weeks in Tönisvorst, North Rhine-Westphalia, Germany

Now
72 °F

Thunderstorms. Partly cloudy.


Feels Like: 67 °F
Forecast: 60 / 74 °F
Wind: 6 mph from North

Location: Monchengladbach Airport

Current Time: Jul 29, 2014 at 3:30:12 PM

Latest Report: Jul 29, 2014 at 2:51 PM


Visibility: 2 mi

Pressure: 29.80 "Hg

Humidity: 94%

Dew point: 70 °F

Location of TönisvorstLocation

Historic Weather in Tönisvorst — Graph

°F

Tönisvorst temperature yesterday

Maximum temperature yesterday: 79 °F (at 12:20 PM)
Minimum temperature yesterday: 66 °F (at 7:50 AM)
Average temperature yesterday: 73 °F

Past Weeks' High & Low Weather Summary

 TemperatureHumidityPressure
High91 °F (Jul 19, 4:50 PM)100% (Jul 15, 12:50 PM)30.18 "Hg (Jul 15, 12:50 PM)
Low61 °F (Jul 15, 7:50 AM)29% (Jul 19, 12:50 PM)29.77 "Hg (Jul 20, 8:20 AM)
Average74 °F68%29.97 "Hg
* Reported Jul 14 2:20 PM — Jul 29 2:20 PM, Tönisvorst, Weather by CustomWeather, © 2014

Note: Actual official high and low records may vary slightly from our data, if they occured in-between our weather recording intervals... More about our weather records

Advertising

Tönisvorst weather history for previous 24 hours

 ConditionsComfort  
Time TempWeatherWind HumidityBarometerVisibility
2:20 PM
Jul 29
77 °FThundershowers. Passing clouds.7 mph74%29.80 "Hg3 mi
1:50 PM77 °FFog.7 mph74%29.83 "Hg3 mi
1:20 PM77 °FPartly sunny.7 mph74%29.83 "HgN/A
12:50 PM75 °FPartly sunny.6 mph78%29.83 "Hg2 mi
12:20 PM75 °FFog.7 mph78%29.83 "Hg2 mi
11:50 AM73 °FFog.9 mph83%29.83 "Hg1 mi
11:20 AM70 °FFog.8 mph88%29.83 "Hg1 mi
10:50 AM68 °FFog.7 mph94%29.86 "Hg1 mi
10:20 AM68 °FFog.8 mph94%29.83 "Hg1 mi
9:50 AM66 °FFog.6 mph100%29.86 "Hg1 mi
9:20 AM66 °FFog.7 mph100%29.83 "Hg1 mi
8:50 AM66 °FFog.7 mph100%29.83 "Hg1 mi
8:20 AM64 °FLight rain. Fog.7 mph100%29.83 "Hg1 mi
7:50 AM64 °FLight rain. Fog.7 mph100%29.83 "Hg1 mi
8:20 PM
Jul 28
70 °FFog.2 mph94%29.86 "Hg2 mi
7:50 PM70 °FFog.2 mph94%29.83 "Hg2 mi
7:20 PM70 °FFog.3 mph94%29.83 "Hg2 mi
6:50 PM70 °FThunderstorms. Passing clouds.6 mph88%29.83 "Hg4 mi
6:20 PM73 °FRain showers. Passing clouds.3 mph78%29.83 "Hg4 mi
5:50 PM75 °FPassing clouds.8 mph74%29.83 "Hg4 mi
5:20 PM75 °FPassing clouds.8 mph74%29.83 "Hg4 mi
4:50 PM75 °FPassing clouds.10 mph74%29.83 "Hg4 mi
4:20 PM75 °FPassing clouds.9 mph78%29.83 "Hg4 mi
3:50 PM72 °FPassing clouds.7 mph88%29.83 "HgN/A
3:20 PM72 °FPassing clouds.10 mph88%29.83 "HgN/A
Weather by CustomWeather, © 2014

See weather overviewHow to use our weather pages